Retour au catalogue

OV1-9

ActifMilitairePO
NORAD 2610·PAYLOAD·🇺🇸 United States

Lancé Dec 11, 1966 depuis Vandenberg Space Force Base

Loading…

Prochains Passages (prochaines 24 heures)

TLE

FraisSource: Space-Track

Époque: Sep 14, 2026, 07:56 UTC

1 02610U 66111A   26257.33095597  .00000474  00000-0  20023-3 0  9992
2 02610  99.1108  25.2946 2271364 240.7957  94.7283 10.39947890242300

Suivez OV1-9 en temps réel avec AllMySat

Download on the App Store